User: anonymous   Login
Location: Munkebjergskolens Observatorium
(55.3864°N, 10.3987°E)
Time: 16:53:27
(UTC+01:00)
Language:

JY1SAT - Orbit

View from above orbital plane
View from above orbital plane
View from above satellite
View from above satellite

Ground track
Ground track

The orbit data is extracted from the following two-line orbital elements,

1 43803U 18099AX  23078.14253552  .00006391  00000-0  52233-3 0  9999
2 43803  97.5863 143.0659 0015756  64.3146 295.9703 14.99617535234198
Epoch (UTC): 19 March 2023 03:25:15
Eccentricity: 0.0015756
inclination: 97.5863°
perigee height: 557 km
apogee height: 579 km
right ascension of ascending node: 143.0659°
argument of perigee: 64.3146°
revolutions per day: 14.99617535
mean anomaly at epoch: 295.9703°
orbit number at epoch: 23419

The dashed part of the orbit path shows where the satellite is in the earth's shadow,  

DLR